TimeMDT,TemperatureF,Dew PointF,Humidity,Sea Level PressureIn,VisibilityMPH,Wind Direction,Wind SpeedMPH,Gust SpeedMPH,PrecipitationIn,Events,Conditions,WindDirDegrees,DateUTC
12:00 AM,-25,,,30.35,,North,15.0,,,,,350,2013-04-04 06:00:00
12:00 AM,-9999,-9999,N/A,30.35,-9999.0,North,16.1,-,N/A,,Unknown,350,2013-04-04 06:00:00
1:00 AM,-9999,-9999,N/A,30.36,-9999.0,NNW,13.8,-,N/A,,Unknown,330,2013-04-04 07:00:00
2:00 AM,-9999,-9999,N/A,30.37,-9999.0,NNW,12.7,-,N/A,,Unknown,340,2013-04-04 08:00:00
3:00 AM,-9999,-9999,N/A,30.38,-9999.0,North,15.0,-,N/A,,Unknown,350,2013-04-04 09:00:00
5:00 AM,-9999,-9999,N/A,30.40,-9999.0,North,13.8,-,N/A,,Unknown,360,2013-04-04 11:00:00
6:00 AM,-32,,,30.41,,NNW,11.5,,,,,340,2013-04-04 12:00:00
6:00 AM,-9999,-9999,N/A,30.41,-9999.0,NNW,11.5,-,N/A,,Unknown,340,2013-04-04 12:00:00
7:00 AM,-9999,-9999,N/A,30.41,-9999.0,North,13.8,-,N/A,,Unknown,350,2013-04-04 13:00:00
8:00 AM,-9999,-9999,N/A,30.42,-9999.0,North,13.8,-,N/A,,Unknown,360,2013-04-04 14:00:00
9:00 AM,-9999,-9999,N/A,30.43,-9999.0,North,11.5,-,N/A,,Unknown,360,2013-04-04 15:00:00
11:00 AM,-9999,-9999,N/A,30.44,-9999.0,North,5.8,-,N/A,,Unknown,360,2013-04-04 17:00:00
12:00 PM,-24,,,30.44,,North,5.8,,,,,10,2013-04-04 18:00:00
12:00 PM,-9999,-9999,N/A,30.44,-9999.0,North,5.8,-,N/A,,Unknown,10,2013-04-04 18:00:00
1:00 PM,-9999,-9999,N/A,30.45,-9999.0,North,5.8,-,N/A,,Unknown,10,2013-04-04 19:00:00
2:00 PM,-9999,-9999,N/A,30.47,-9999.0,ENE,3.5,-,N/A,,Unknown,60,2013-04-04 20:00:00
3:00 PM,-9999,-9999,N/A,30.48,-9999.0,NE,3.5,-,N/A,,Unknown,50,2013-04-04 21:00:00
4:00 PM,-9999,-9999,N/A,30.49,-9999.0,North,4.6,-,N/A,,Unknown,350,2013-04-04 22:00:00
5:00 PM,-9999,-9999,N/A,30.50,-9999.0,North,8.1,-,N/A,,Unknown,360,2013-04-04 23:00:00
6:00 PM,-21,,,30.50,,North,8.1,,,,,0,2013-04-05 00:00:00
6:00 PM,-9999,-9999,N/A,30.50,-9999.0,North,8.1,-,N/A,,Unknown,360,2013-04-05 00:00:00
7:00 PM,-9999,-9999,N/A,30.50,-9999.0,North,10.4,-,N/A,,Unknown,350,2013-04-05 01:00:00
8:00 PM,-9999,-9999,N/A,30.50,-9999.0,NNW,11.5,-,N/A,,Unknown,340,2013-04-05 02:00:00
9:00 PM,-9999,-9999,N/A,30.50,-9999.0,NNW,12.7,-,N/A,,Unknown,340,2013-04-05 03:00:00
10:00 PM,-9999,-9999,N/A,30.50,-9999.0,NNW,11.5,-,N/A,,Unknown,340,2013-04-05 04:00:00
11:00 PM,-9999,-9999,N/A,30.48,-9999.0,North,16.1,-,N/A,,Unknown,350,2013-04-05 05:00:00